{"data":{"norad_id":53261,"intl_designator":"2022-086V","name":"STARLINK-4062","alt_names":[],"object_type":"PAYLOAD","status":"ACTIVE","operator":null,"country":"US","launch_date":"2022-07-24","launch_site_code":"AFETR","launch_vehicle":null,"mission":null,"orbit_class":"UNKNOWN","rcs_meters":null,"size_class":null,"mass_kg":null,"dimensions":null,"purposes":["comms"],"wikipedia_slug":null,"has_3d_model":false,"image_url":null,"decayed_at":null,"tle_current":{"epoch":"2026-09-20T00:12:44.455968Z","epoch_age_seconds":117789,"freshness":"FRESH","line1":"1 53261U 22086V   26263.00884787  .00003402  00000+0  11179-3 0  9996","line2":"2 53261  53.1616  27.7125 0001283  69.9840 290.1300 15.34393228230599","mean_motion":15.34393228,"eccentricity":0.0001283,"inclination_deg":53.1616,"raan_deg":27.7125,"arg_perigee_deg":69.984,"mean_anomaly_deg":290.13,"bstar":0.00011179,"rev_number":23059,"period_min":93.848172275693,"perigee_km":461.84568570704,"apogee_km":463.60105047749,"semimajor_km":6840.8603680923,"source":"CELESTRAK","updated_at":"2026-09-20T09:00:40.216038Z"}}}